PDT,Max TemperatureF,Mean TemperatureF,Min TemperatureF,Max Dew PointF,MeanDew PointF,Min DewpointF,Max Humidity, Mean Humidity, Min Humidity, Max Sea Level PressureIn, Mean Sea Level PressureIn, Min Sea Level PressureIn, Max VisibilityMiles, Mean VisibilityMiles, Min VisibilityMiles, Max Wind SpeedMPH, Mean Wind SpeedMPH, Max Gust SpeedMPH,PrecipitationIn, CloudCover, Events, WindDirDegrees
2013-3-1,70,54,39,47,44,36,89,70,42,30.43,30.33,30.25,10,10,6,6,3,,0.00,0,,65
2013-3-2,69,57,45,53,48,44,99,75,45,30.26,30.17,30.06,10,10,6,8,2,,0.00,3,,86
2013-3-3,65,60,55,50,48,46,80,68,56,30.06,30.04,30.01,10,10,10,13,7,,0.00,7,,147
2013-3-4,65,54,42,50,47,43,100,78,54,30.34,30.18,30.01,10,9,4,10,5,,0.00,0,,166
2013-3-5,61,52,44,46,41,32,87,67,41,30.24,30.12,29.83,10,9,2,22,12,21,0.14,5,Rain,154
2013-3-6,56,48,41,46,44,37,96,82,51,30.27,30.00,29.81,10,7,2,28,20,36,0.15,7,Rain,153
2013-3-7,57,48,38,42,39,35,99,72,45,30.23,30.16,30.10,10,10,10,8,4,,0.00,3,,336
2013-3-8,66,50,34,44,37,30,99,67,26,30.25,30.09,30.02,10,10,9,14,6,,0.00,1,,307
2013-3-9,69,52,36,44,37,30,99,62,24,30.51,30.43,30.23,10,10,10,18,7,21,0.00,0,,356
2013-3-10,64,50,37,44,40,31,82,65,41,30.59,30.52,30.48,10,10,9,12,7,,0.00,0,,108
2013-3-11,69,54,39,47,43,39,100,66,38,30.49,30.39,30.12,10,10,7,7,4,,0.00,0,,101
2013-3-12,73,57,41,51,46,41,100,72,38,30.39,30.28,30.07,10,9,5,7,2,,0.00,0,,28
2013-3-13,77,62,46,56,49,44,97,67,31,30.36,30.21,30.06,10,9,2,6,3,,0.00,0,,17
2013-3-14,77,62,47,55,48,43,97,61,37,30.36,30.30,30.06,10,10,10,6,2,,0.00,1,,50
2013-3-15,76,62,48,53,49,44,99,69,34,30.33,30.24,29.99,10,10,8,8,3,,0.00,0,Rain,37
2013-3-16,74,58,43,51,45,38,99,64,27,30.29,30.24,30.19,10,10,10,8,3,,0.00,0,,74
2013-3-17,71,55,39,43,38,29,91,57,21,30.35,30.29,30.23,10,10,10,12,4,,0.00,0,,360
2013-3-18,69,54,40,46,39,35,86,56,31,30.32,30.28,30.23,10,10,10,7,4,,0.00,3,,118
2013-3-19,68,58,47,55,49,43,100,79,41,30.35,30.22,30.06,10,7,2,12,5,,0.15,6,Rain,144
2013-3-20,59,55,51,57,54,51,100,97,82,30.33,30.11,30.05,10,7,1,18,10,,0.36,8,Rain,149
2013-3-21,66,56,44,52,43,31,100,73,28,30.34,30.19,29.99,10,9,2,16,8,22,0.00,3,,309
2013-3-22,64,52,39,34,28,23,70,43,21,30.11,30.06,30.02,10,10,10,26,14,33,0.00,0,,325
2013-3-23,67,48,39,38,34,28,71,61,48,30.29,30.21,30.07,10,10,10,10,8,,0.00,0,,68
2013-3-24,72,56,41,48,39,34,85,56,27,30.31,30.23,30.07,10,10,10,8,4,,0.00,0,,52
2013-3-25,70,56,43,48,43,37,86,61,41,30.21,30.17,30.10,10,10,10,14,7,,0.00,3,,142
2013-3-26,69,56,43,49,45,41,99,67,41,30.21,30.17,30.13,10,10,10,15,8,,0.00,2,,150
2013-3-27,71,56,44,52,48,44,100,71,49,30.16,30.02,29.92,10,10,10,16,8,,0.00,4,,156
2013-3-28,67,58,50,55,52,48,100,75,54,30.32,30.20,30.00,10,8,1,12,8,,0.00,6,Rain,284
2013-3-29,77,61,45,52,48,44,100,71,31,30.33,30.26,30.02,10,10,10,12,6,,0.01,2,,335
2013-3-30,75,62,48,55,50,45,94,65,44,30.26,30.16,29.94,10,10,10,10,5,,0.00,7,Rain,172
2013-3-31,69,60,53,59,54,48,100,92,47,30.33,30.11,30.00,10,6,1,23,8,32,1.30,7,Rain-Thunderstorm,139